Regional Weather Roundup
Issued by NWS Midland/Odessa, TX

Current Version | Previous Version | Text Only | Print | Product List | Glossary On
Versions: 1 2 3 4 5 6 7 8 9 10 11 12 13 14 15 16 17 18 19 20 21 22 23 24 25 26 27 28 29 30 31 32 33 34 35 36 37 38 39 40 41 42 43 44 45 46 47 48 49 50
000
ASUS44 KMAF 021710
RWRMAF
MIDLAND AREA WEATHER ROUNDUP
NATIONAL WEATHER SERVICE MIDLAND TX
1100 AM CST MON MAR 02 2015

...IN SOUTHWEST TEXAS AND SOUTHEAST NEW MEXICO...

CITY           SKY/WX    TMP DP  RH WIND       PRES   REMARKS
ALPINE         CLOUDY    37  36  97 CALM      30.29F
ANDREWS        CLOUDY    32  32 100 E9        30.29F FOG     WCI  24
ARTESIA        CLOUDY    34  34 100 SE10G18   30.24F FOG     WCI  26
BIG SPRING     CLOUDY    33  32  94 NE7       30.34  WCI  27
CARLSBAD       CLOUDY    35  33  92 S9        30.25F FOG     WCI  28
DRYDEN           N/A     42  38  85 NE8       30.29F WCI  37
FORT STOCKTON  CLOUDY    35  35 100 E6        30.29F FOG     WCI  30
GUAD PASS      NOT AVBL
HOBBS          CLOUDY    32  32 100 E6        30.29R FOG     WCI  26
MARFA          MOSUNNY   52  37  58 E5        30.22F
MIDLAND AIRPK  CLOUDY    33  33 100 E7        30.31F FOG     WCI  27
MIDLAND INTL   FOG       32  32 100 NE12      30.29F VSB 1/2 WCI  23
ODESSA         CLOUDY    33  31  92 E12       30.28F FOG     WCI  24
PECOS          CLOUDY    35  34  96 E8        30.30F FOG     WCI  29
PRESIDIO       FAIR      57  40  53 E12G22    30.18F
SEMINOLE       FOG       32  32 100 E7        30.30S VSB 1   WCI  25
SNYDER         CLOUDY    29  28  97 NE6       30.35F FOG     WCI  23
WINK           CLOUDY    37  31  78 SE8       30.28F WCI  31
$$
...OTHER STATIONS IN TEXAS...

CITY           SKY/WX    TMP DP  RH WIND       PRES   REMARKS
ABILENE        CLOUDY    31  29  92 N7        30.37F FOG     WCI  24
AMARILLO       CLOUDY    29  27  92 S13       30.25F WCI  19
AUSTIN         CLOUDY    42  39  89 N14       30.34F WCI  35
BROWNSVILLE    FOG       55  55 100 N9        30.27R VSB 1
CORPUS CHRISTI DRIZZLE   49  47  93 N10       30.30R FOG
DALLAS FTW     DRIZZLE   35  34  96 N9        30.38F FOG     WCI  28
DEL RIO        CLOUDY    45  42  89 NW7       30.32F
EL PASO        CLOUDY    54  34  46 S9        30.09S
HOUSTON INT    CLOUDY    52  50  93 N7        30.31S FOG
LUBBOCK        FOG       29  28  96 S10       30.30R VSB 1/4 WCI  20
SAN ANGELO     CLOUDY    35  33  92 NE9       30.35S WCI  28
SAN ANTONIO    CLOUDY    46  41  82 NE10      30.32R
WACO           CLOUDY    38  36  92 N10       30.37F FOG     WCI  31
WICHITA FALLS  NOT AVBL
$$
...OTHER LOCATIONS IN NEW MEXICO...

CITY           SKY/WX    TMP DP  RH WIND       PRES   REMARKS
ALAMAGORDO     CLOUDY    63  32  31 S25G41    30.07S
ALBUQUERQUE    PTSUNNY   41  31  67 N13       30.05F WCI  34
CANNON AFB     FOG       29  29  99 S10       30.22F VSB 1/4 WCI  20
CLOVIS         CLOUDY    28  28 100 S10       30.22F WCI  19
HOLLOMAN AFB   CLOUDY    62  32  32 SE25G35   30.03F
ROSWELL        FOG       34  32  92 S12       30.23F VSB 3/4 WCI  25
RUIDOSO        PTSUNNY   39  39 100 SE6       30.14S WCI  35
SANTA FE       MOSUNNY   35  25  66 S16       30.08F WCI  25
TRUTH OR CONSE CLOUDY    60  29  30 S13G21    30.03S
TUCUMCARI      CLOUDY    32  29  88 S12       30.21F WCI  23
$$



USA.gov is the U.S. government's official web portal to all federal, state and local government web resources and services.